Погода в Лимейре

Бразилия     22°33′30″S   47°23′55″W
темп.,
°C
ветер,
м/с
пор.,
м/с
влажн.,
%
обл.,
%
осадки,
мм/ч
давл.,
гПа
погр.,
м
27 февраля, сб
сб2700:00+18св22948 0.0 101457
03:00+17всв12969 0.0 101329
06:00+17юв11967 0.0 101423
09:00+22в118228 0.0 1015371
12:00+25вюв227316 2.2 1014849
15:00+25всв237623 7.3 1012689
18:00+22всв368869 6.0 1011187
21:00+20в399484 9.4 1014296
28 февраля, вс
вс2800:00+19в269494 0.5 1014182
03:00+18в249589 0.8 1013126
06:00+18всв229443 0.0 101459
09:00+22св358557 0.0 1015430
12:00+25с477370 0.8 1014945
15:00+26св356953 2.3 1011734
18:00+23в23856 1.9 101192
21:00+20в129112 2.3 101332
1 марта, пн
пн100:00+19всв239356 0.6 101370
03:00+19св249470 0.6 101294
06:00+19св239397 0.4 1013102
09:00+23ссв498067 0.4 1014723
12:00+26ссв57770 2.4 1013994
15:00+27с356734 5.0 10101369
18:00+24св237977 0.3 1010100
21:00+21всв238665 0.3 101340
2 марта, вт
вт200:00+20св12881 0.0 101423
03:00+19св229216 0.0 101330
06:00+19св2394100 1.9 101494
09:00+23ссв4983100 1.9 1015651
12:00+26ссв467492 0.9 1014904
15:00+26ссв247894 5.9 1012598
18:00+23ссв118499 0.8 101224
21:00+22ссв128699 1.0 101425
3 марта, ср
ср300:00+21ссв1291100 0.3 101530
03:00+19ссв2392100 0.6 101582
06:00+19ссв279098 0.1 1016207
09:00+23ссв477898 0.1 1017440
12:00+27с456594 0.0 10161226
15:00+27с136989 1.9 10131028
18:00+24юз1285100 1.9 101346
21:00+22ююз1188100 2.5 101523